Location: Dentlein
(49.1477°N, 10.4231°E)
Time: 01:38:13
(UTC+00:00)

CZ-2C R/B - Pass Details

Date: 23 May 2024
Orbit: 784 x 868 km, 98.3° (Epoch: 19 June)

Event Time Altitude Azimuth Distance (km) Brightness Sun altitude
Exits shadow 00:47:48 - 146° (SE) 2,412 4.8 -17.2°
Reaches altitude 10° 00:48:00 10° 145° (SE) 2,339 4.7 -17.2°
Maximum altitude 00:53:00 54° 69° (ENE) 951 3.2 -16.9°
Drops below altitude 10° 00:58:03 10° 354° (N) 2,363 5.9 -16.5°
Sets 01:00:26 0° 350° (N) 3,304 6.7 -16.4°
